Location: Aranbee
(34.0885°N, 118.2342°W)
Time: 03:16:45
(UTC+00:00)

deb Explorer IX - Pass Details

Date: 05 December 2020
Orbit: 536 x 1104 km, 38.8° (Epoch: 25 January)

Event Time Altitude Azimuth Distance (km) Brightness Sun altitude
Rises 02:33:13 0° 290° (WNW) 3,512 ? -22.2°
Reaches altitude 10° 02:35:59 10° 289° (WNW) 2,475 ? -22.8°
Maximum altitude 02:41:48 80° 204° (SSW) 761 ? -24.0°
Enters shadow 02:42:45 60° 131° (SE) 838 ? -24.1°
